This demonstration page uses our WeatherBlox Daily Observations layout. Learn more.

Left ArrowRight Arrow

39.92423, -83.80882

Hourly Observations for February 26, 2022

Temp ( °F °C ) Dew Point ( °F °C ) Humidity (%) Winds ( mph kmh ) Pressure ( in mb ) Visibility ( mi km ) Precip ( " mm )
12:34 am 00:34 Cloudy 27 -3 27 -3 100 100 NW 5 7 30.54 1034 10 16 0.00 0.00
12:42 am 00:42 Cloudy 27 -3 27 -3 100 100 WNW 6 9 30.54 1034 10 16 0.00 0.00
12:56 am 00:56 Cloudy with Light Snow 26 -3.3 26 -3.3 100 100 WNW 7 11 30.53 1034 9 14 0.00 0.00
1:03 am 01:03 Cloudy with Light Snow 27 -3 27 -3 100 100 WNW 7 11 30.55 1034 9 14 0.00 0.00
1:56 am 01:56 Cloudy 26 -3.3 26 -3.3 100 100 WNW 5 7 30.54 1034 9 14 0.00 0.00
2:30 am 02:30 Cloudy with Light Snow 27 -3 27 -3 100 100 WNW 6 9 30.56 1035 10 16 0.00 0.00
2:42 am 02:42 Cloudy with Light Snow 27 -3 27 -3 100 100 WNW 7 11 30.56 1035 9 14 0.00 0.00
2:56 am 02:56 Cloudy with Light Snow 26 -3.3 26 -3.3 100 100 WNW 7 11 30.54 1034 9 14 0.00 0.00
3:33 am 03:33 Cloudy with Light Snow 27 -3 27 -3 100 100 NW 7 11 30.56 1035 9 14 0.00 0.00
3:56 am 03:56 Cloudy with Light Snow 25 -3.9 25 -3.9 100 100 NW 9 15 30.53 1034 9 14 0.00 0.00
4:04 am 04:04 Cloudy with Light Snow 25 -4 25 -4 100 100 WNW 8 13 30.55 1035 9 14 0.00 0.00
4:48 am 04:48 Partly Cloudy 25 -4 25 -4 100 100 WNW 9 15 30.56 1035 9 14 0.00 0.00
4:56 am 04:56 Mostly Clear 25 -3.9 24 -4.4 96 96 WNW 9 15 30.53 1034 10 16 0.00 0.00
5:14 am 05:14 Mostly Cloudy 25 -4 25 -4 100 100 NW 8 13 30.56 1035 10 16 0.00 0.00
5:21 am 05:21 Mostly Cloudy 25 -4 25 -4 100 100 WNW 9 15 30.56 1035 10 16 0.00 0.00
5:44 am 05:44 Partly Cloudy 25 -4 25 -4 100 100 NW 7 11 30.57 1035 10 16 0.00 0.00
5:56 am 05:56 Mostly Clear 24 -4.4 24 -4.4 100 100 WNW 8 13 30.55 1035 10 16 0.00 0.00
6:03 am 06:03 Partly Cloudy 25 -4 25 -4 100 100 NW 7 11 30.57 1035 10 16 0.00 0.00
6:56 am 06:56 Partly Cloudy 22 -5.6 22 -5.6 100 100 NW 5 7 30.56 1035 10 16 0.00 0.00
7:03 am 07:03 Mostly Cloudy 21 -6 21 -6 100 100 NW 5 7 30.59 1036 10 16 0.00 0.00
7:28 am 07:28 Partly Cloudy 21 -6 21 -6 100 100 NNW 5 7 30.59 1036 8 13 0.00 0.00
7:37 am 07:37 Mostly Cloudy 21 -6 21 -6 100 100 NNW 3 6 30.59 1036 8 13 0.00 0.00
7:56 am 07:56 Cloudy 23 -5 23 -5 100 100 NW 3 6 30.57 1035 8 13 0.00 0.00
8:26 am 08:26 Cloudy 25 -4 25 -4 100 100 W 5 7 30.59 1036 8 13 0.00 0.00
8:56 am 08:56 Cloudy 24 -4.4 22 -5.6 91 91 NW 7 11 30.57 1035 10 16 0.00 0.00
9:27 am 09:27 Cloudy 25 -4 21 -6 86 86 WNW 8 13 30.59 1036 10 16 0.00 0.00
9:56 am 09:56 Cloudy 25 -3.9 23 -5 92 92 NW 3 6 30.57 1035 9 14 0.00 0.00
10:56 am 10:56 Cloudy with Light Snow 25 -3.9 22 -5.6 88 88 W 8 13 30.57 1035 9 14 0.00 0.00
11:56 am 11:56 Cloudy 26 -3.3 21 -6.1 81 81 SW 8 13 30.54 1034 10 16 0.00 0.00
12:56 pm 12:56 Cloudy 27 -2.8 23 -5 85 85 WSW 12 19 30.53 1034 10 16 0.00 0.00
1:56 pm 13:56 Cloudy 27 -2.8 23 -5 85 85 W 9 15 30.50 1033 10 16 0.00 0.00
2:56 pm 14:56 Cloudy 30 -1.1 25 -3.9 82 82 WSW 13 20 30.48 1032 10 16 0.00 0.00
3:13 pm 15:13 Partly Cloudy 30 -1 25 -4 80 80 W 14 22 30.49 1032 10 16 0.00 0.00
3:35 pm 15:35 Mostly Cloudy 30 -1 25 -4 80 80 W 12 19 30.49 1032 10 16 0.00 0.00
3:56 pm 15:56 Mostly Cloudy 31 -0.6 26 -3.3 82 82 W 13 20 30.47 1032 10 16 0.00 0.00
4:04 pm 16:04 Partly Cloudy 30 -1 27 -3 86 86 W 14 22 30.49 1032 10 16 0.00 0.00
4:56 pm 16:56 Partly Cloudy 31 -0.6 26 -3.3 82 82 W 9 15 30.47 1032 10 16 0.00 0.00
5:56 pm 17:56 Sunny 29 -1.7 25 -3.9 85 85 W 8 13 30.46 1032 10 16 0.00 0.00
6:56 pm 18:56 Clear 27 -2.8 25 -3.9 92 92 W 6 9 30.45 1031 10 16 0.00 0.00
7:56 pm 19:56 Clear 25 -3.9 25 -3.9 100 100 W 5 7 30.45 1031 10 16 0.00 0.00
8:56 pm 20:56 Clear 25 -3.9 25 -3.9 100 100 SW 5 7 30.43 1031 10 16 0.00 0.00
9:56 pm 21:56 Clear 24 -4.4 24 -4.4 100 100 SW 5 7 30.41 1030 10 16 0.00 0.00
10:56 pm 22:56 Clear 24 -4.4 24 -4.4 100 100 SW 3 6 30.38 1029 10 16 0.00 0.00
11:56 pm 23:56 Clear 24 -4.4 24 -4.4 100 100 SSW 7 11 30.38 1029 10 16 0.00 0.00

Powered by AerisWeather